Flag for Ecuador Weather past 2 weeks in Quito, Ecuador

Now
57 °F

Scattered clouds.


Feels Like: 55 °F
Forecast: 51 / 61 °F
Wind: 9 mph from Southwest

Location: Latacunga Airport

Current Time: Mar 6, 2015 at 11:19:32 AM

Latest Report: Mar 6, 2015 at 10:00 AM


Visibility: N/A

Pressure: 30.42 "Hg

Humidity: 77%

Dew point: 50 °F

Location of QuitoLocation

Historic Weather in Quito — Graph

°F

Quito temperature yesterday

Maximum temperature yesterday: 66 °F (at 5:00 PM)
Minimum temperature yesterday: 52 °F (at 2:00 AM)
Average temperature yesterday: 56 °F

Past Weeks' High & Low Weather Summary

 TemperatureHumidityPressure
High75 °F (Feb 20, 3:00 PM)100% (Feb 20, 4:00 AM)30.48 "Hg (Feb 20, 4:00 AM)
Low41 °F (Feb 21, 8:00 AM)31% (Feb 20, 3:00 PM)30.15 "Hg (Feb 19, 12:00 PM)
Average58 °F78%30.38 "Hg
* Reported Feb 19 12:00 Noon — Mar 6 10:00 AM, Quito, Weather by CustomWeather, © 2015

Note: Actual official high and low records may vary slightly from our data, if they occured in-between our weather recording intervals... More about our weather records

Advertising

Quito weather history for previous 24 hours

 ConditionsComfort  
Time TempWeatherWind HumidityBarometerVisibility
10:00 AM
Fri, Mar 6
57 °FScattered clouds.9 mph77%30.42 "HgN/A
9:00 AM55 °FScattered clouds.2 mph82%30.42 "HgN/A
7:00 AM50 °FPartly sunny.No wind94%30.39 "HgN/A
6:00 AM48 °FPassing clouds.2 mph94%30.39 "HgN/A
5:00 AM50 °FPartly cloudy.7 mph94%30.36 "HgN/A
4:00 AM50 °FPassing clouds.6 mph94%30.36 "HgN/A
3:00 AM52 °FPassing clouds.8 mph94%30.36 "HgN/A
2:00 AM52 °FPassing clouds.6 mph94%30.36 "HgN/A
1:00 AM54 °FPassing clouds.9 mph88%30.39 "HgN/A
12:00 AM54 °FPassing clouds.8 mph88%30.42 "HgN/A
11:00 PM
Thu, Mar 5
54 °FPassing clouds.10 mph88%30.42 "HgN/A
10:00 PM54 °FPassing clouds.9 mph88%30.42 "HgN/A
9:00 PM57 °FPassing clouds.8 mph77%30.39 "HgN/A
8:00 PM57 °FPassing clouds.10 mph82%30.36 "HgN/A
6:00 PM64 °FScattered clouds.9 mph68%30.30 "HgN/A
5:00 PM66 °FPartly sunny.10 mph60%30.27 "HgN/A
4:00 PM64 °FPartly sunny.12 mph68%30.30 "HgN/A
3:00 PM61 °FBroken clouds.14 mph63%30.30 "HgN/A
2:00 PM61 °FBroken clouds.10 mph63%30.33 "HgN/A
1:00 PM59 °FBroken clouds.18 mph68%30.36 "HgN/A
12:00 PM59 °FBroken clouds.16 mph72%30.39 "HgN/A
11:00 AM57 °FBroken clouds.8 mph72%30.42 "HgN/A
Weather by CustomWeather, © 2015

See weather overviewHow to use our weather pages